KB5SQG Weather Reports


time (UTC)temp
C
wind
direction
speed
KPH
gust
KPH
rain 1hr
cm
rain 24hr
cm
rain mn
cm
humidity
%
barometer
mb
20260506044117 18 0.0 1.6 0.00 0.00 0.00 73 1011.0
20260506043231 18 23 3.2 3.2 0.00 0.00 0.00 72 1010.9
20260506003017 25 45 1.6 6.4 0.00 0.00 0.00 60 1006.4
20260506002017 26 0.0 1.6 0.00 0.00 0.00 59 1005.8
20260506001017 26 0.0 1.6 0.00 0.00 0.00 58 1005.9
20260506000017 27 0.0 0.0 0.00 0.00 0.00 54 1005.7
20260505235017 28 45 1.6 4.8 0.00 0.00 0.00 54 1005.7
20260505234057 29 23 3.2 8.0 0.00 0.00 0.00 53 1005.6
20260505233017 31 68 3.2 4.8 0.00 0.00 0.00 50 1005.2
20260505232017 31 0.0 1.6 0.00 0.00 0.00 47 1004.7
20260505231017 32 23 1.6 3.2 0.00 0.00 0.00 45 1004.6
20260505230037 33 0.0 1.6 0.00 0.00 0.00 43 1004.4
20260505225057 35 0.0 0.0 0.00 0.00 0.00 43 1004.2
20260505224017 35 0.0 1.6 0.00 0.00 0.00 45 1004.2
20260505223017 34 45 1.6 6.4 0.00 0.00 0.00 45 1004.0
20260505222017 34 0.0 1.6 0.00 0.00 0.00 39 1004.0
20260505221017 35 0.0 3.2 0.00 0.00 0.00 39 1003.9
20260505220017 35 0.0 0.0 0.00 0.00 0.00 40 1003.9
20260505215017 36 0.0 0.0 0.00 0.00 0.00 42 1003.8
20260505214017 35 0.0 0.0 0.00 0.00 0.00 39 1004.0
20260505213017 35 248 1.6 4.8 0.00 0.00 0.00 38 1004.1
20260505212017 34 225 1.6 4.8 0.00 0.00 0.00 39 1004.1
20260505211017 35 0.0 1.6 0.00 0.00 0.00 40 1004.3
20260505210017 33 248 3.2 6.4 0.00 0.00 0.00 40 1004.4
20260505205017 34 315 3.2 8.0 0.00 0.00 0.00 43 1004.6
20260505204017 33 248 1.6 3.2 0.00 0.00 0.00 42 1004.8
20260505202017 33 315 1.6 3.2 0.00 0.00 0.00 46 1004.9
20260505201037 32 0.0 1.6 0.00 0.00 0.00 47 1004.9
20260505200017 33 270 1.6 4.8 0.00 0.00 0.00 45 1005.2
20260505195017 33 315 4.8 9.7 0.00 0.00 0.00 46 1005.3
20260505194017 32 338 3.2 6.4 0.00 0.00 0.00 46 1005.4
20260505193017 32 293 4.8 8.0 0.00 0.00 0.00 44 1005.4
20260505192017 32 293 6.4 9.7 0.00 0.00 0.00 45 1005.4
20260505191017 32 338 4.8 9.7 0.00 0.00 0.00 48 1005.6
20260505190017 32 203 1.6 3.2 0.00 0.00 0.00 50 1005.5
20260505185037 32 0.0 3.2 0.00 0.00 0.00 52 1005.7
20260505184019 31 293 1.6 4.8 0.00 0.00 0.00 52 1005.7
20260505183018 31 293 4.8 11.3 0.00 0.00 0.00 54 1005.8
20260505182017 30 293 3.2 6.4 0.00 0.00 0.00 53 1006.1
20260505181018 30 315 3.2 4.8 0.00 0.00 0.00 58 1006.2
20260505180018 30 293 6.4 11.3 0.00 0.00 0.00 57 1006.2
20260505175017 29 158 1.6 1.6 0.00 0.00 0.00 60 1006.2
20260505174017 28 338 4.8 6.4 0.00 0.00 0.00 61 1006.3
20260505173017 29 180 4.8 11.3 0.00 0.00 0.00 61 1006.5
20260505172017 28 315 3.2 6.4 0.00 0.00 0.00 63 1006.5
20260505171018 28 293 1.6 9.7 0.00 0.00 0.00 66 1006.5
20260505170017 28 225 1.6 3.2 0.00 0.00 0.00 67 1006.6
20260505165018 27 0.0 1.6 0.00 0.00 0.00 68 1006.6
20260505164017 27 315 3.2 6.4 0.00 0.00 0.00 68 1006.3
20260505163017 27 248 1.6 4.8 0.00 0.00 0.00 69 1006.2
20260505162017 27 225 4.8 8.0 0.00 0.00 0.00 69 1006.2
20260505161017 27 293 6.4 14.5 0.00 0.00 0.00 69 1006.2
20260505153015 26 293 6.4 16.1 0.00 0.00 0.00 70 1006.4
20260505152117 26 338 1.6 4.8 0.00 0.00 0.00 72 1006.4
20260505151016 26 270 6.4 14.5 0.00 0.00 0.00 72 1006.5
20260505125016 20 0.0 0.0 0.00 0.00 0.00 86 1006.3
20260505124016 20 0.0 0.0 0.00 0.00 0.00 86 1006.4
20260505123016 20 0.0 0.0 0.00 0.00 0.00 87 1006.2
20260505122036 20 0.0 0.0 0.00 0.00 0.00 87 1006.0
20260505121035 20 0.0 1.6 0.00 0.00 0.00 87 1005.8
20260505120016 20 0.0 0.0 0.00 0.00 0.00 87 1005.8
20260505115016 20 0.0 0.0 0.00 0.00 0.00 86 1005.7
20260505114015 20 0.0 1.6 0.00 0.00 0.00 85 1005.4
20260505113017 20 315 1.6 3.2 0.00 0.00 0.00 85 1005.3
20260505112016 20 0.0 0.0 0.00 0.00 0.00 85 1005.5
20260505111016 20 0.0 1.6 0.00 0.00 0.00 85 1005.4
20260505102016 20 0.0 1.6 0.00 0.00 0.00 84 1005.3
20260505101016 20 0.0 0.0 0.00 0.00 0.00 84 1005.4
20260505100016 20 0.0 0.0 0.00 0.00 0.00 84 1005.6
20260505095016 20 0.0 1.6 0.00 0.00 0.00 84 1005.5
20260505094016 21 0.0 1.6 0.00 0.00 0.00 83 1005.6
20260505093016 21 0.0 0.0 0.00 0.00 0.00 83 1005.5
20260505092016 21 0.0 1.6 0.00 0.00 0.00 83 1005.7
20260505091016 21 0.0 0.0 0.00 0.00 0.00 82 1005.8
20260505090015 21 0.0 0.0 0.00 0.00 0.00 81 1005.7
20260505085016 21 0.0 0.0 0.00 0.00 0.00 81 1005.8
20260505084016 21 0.0 0.0 0.00 0.00 0.00 80 1006.0
20260505083016 21 0.0 0.0 0.00 0.00 0.00 80 1006.1
20260505082016 21 0.0 0.0 0.00 0.00 0.00 79 1006.1
20260505081016 21 315 1.6 8.0 0.00 0.00 0.00 78 1006.0
20260505080016 22 0.0 4.8 0.00 0.00 0.00 78 1005.9
20260505075016 22 158 1.6 4.8 0.00 0.00 0.00 77 1006.1
20260505074016 22 113 1.6 3.2 0.00 0.00 0.00 76 1006.0
20260505073036 22 293 1.6 4.8 0.00 0.00 0.00 76 1006.3
20260505072016 22 0.0 4.8 0.00 0.00 0.00 75 1006.5
20260505071015 22 0.0 0.0 0.00 0.00 0.00 74 1006.4
20260505070016 22 0.0 1.6 0.00 0.00 0.00 74 1006.5
20260505065036 23 135 3.2 8.0 0.00 0.00 0.00 73 1006.6
20260505064016 23 45 1.6 4.8 0.00 0.00 0.00 73 1006.7
20260505063016 23 158 1.6 3.2 0.00 0.00 0.00 73 1006.7
20260505062016 23 90 3.2 8.0 0.00 0.00 0.00 72 1007.0
20260505061016 23 270 1.6 3.2 0.00 0.00 0.00 72 1006.9
20260505060016 23 113 1.6 11.3 0.00 0.00 0.00 71 1006.8
20260505055016 23 293 3.2 6.4 0.00 0.00 0.00 71 1006.8
20260505054016 23 0.0 3.2 0.00 0.00 0.00 71 1006.8
20260505053016 23 113 3.2 11.3 0.00 0.00 0.00 71 1006.8
20260505052016 23 135 1.6 4.8 0.00 0.00 0.00 70 1006.7
20260505051016 23 158 3.2 11.3 0.00 0.00 0.00 70 1006.8